Total_Precipitation_Accumulation
1.28 1.25 1.18 1.22 1.10 1.02 1.09 1.17 1.20 1.22 1.12 0.97 0.91 0.93 1.01 0.94 0.96 1.12 1.44 1.92 2.47 2.95 3.18 3.13 2.93 2.77 2.81 2.81 2.95 3.16 3.36 3.48 3.33 3.16 2.96 2.81 2.90 2.96 2.63 2.56 2.69 2.87 3.08
1.31 1.37 1.30 1.22 1.16 1.07 1.10 1.28 1.25 1.27 1.24 1.17 1.00 1.00 1.03 0.98 0.98 1.02 1.18 1.56 1.94 2.39 2.94 3.34 3.16 2.86 2.63 2.59 2.62 2.81 3.11 3.19 2.92 2.86 2.89 2.92 3.08 3.15 2.78 2.60 2.54 2.56 2.77
1.15 1.23 1.25 1.19 1.16 1.17 1.20 1.25 1.29 1.37 1.28 1.18 1.13 1.09 1.07 1.02 0.96 1.01 0.98 1.14 1.28 1.69 2.23 2.71 3.01 3.03 2.88 2.77 2.72 2.82 3.04 2.96 2.70 2.78 2.94 2.95 2.96 3.01 2.95 2.74 2.52 2.43 2.59
1.22 1.21 1.25 1.23 1.26 1.29 1.28 1.32 1.40 1.39 1.35 1.34 1.29 1.25 1.12 1.08 1.03 1.02 0.97 0.98 1.07 1.12 1.40 1.73 2.15 2.55 2.78 2.89 3.06 3.24 3.09 2.80 2.57 2.57 2.76 2.63 2.53 2.62 2.75 2.73 2.50 2.31 2.24
1.30 1.42 1.45 1.45 1.41 1.43 1.43 1.37 1.40 1.34 1.34 1.35 1.27 1.29 1.24 1.20 1.13 1.00 1.02 1.00 1.02 0.99 1.07 1.10 1.29 1.54 1.94 2.44 3.07 3.35 2.98 2.71 2.53 2.36 2.36 2.30 2.30 2.41 2.45 2.31 2.21 2.09 2.04
1.55 1.74 1.82 1.71 1.67 1.66 1.64 1.58 1.63 1.53 1.41 1.45 1.34 1.32 1.29 1.19 1.22 1.18 1.16 1.10 1.14 1.09 1.03 0.95 0.96 0.91 1.17 1.72 2.47 2.93 2.89 2.74 2.54 2.41 2.26 2.21 2.31 2.42 2.37 2.25 2.17 2.16 2.16
1.87 2.02 1.94 2.02 2.03 1.89 1.88 1.93 1.97 1.94 1.75 1.62 1.67 1.56 1.32 1.14 1.21 1.17 1.17 1.22 1.23 1.31 1.31 1.15 1.01 0.96 0.96 1.17 1.74 2.39 2.76 2.74 2.72 2.57 2.44 2.36 2.31 2.33 2.32 2.26 2.21 2.19 2.24
2.09 2.13 2.20 2.29 2.32 2.32 2.25 2.13 2.24 2.39 2.13 1.90 2.00 2.29 1.92 1.58 1.22 1.00 1.11 1.20 1.24 1.47 1.51 1.29 1.08 1.03 1.03 1.15 1.14 1.51 1.98 2.42 2.66 2.70 2.59 2.48 2.40 2.41 2.45 2.32 2.16 2.15 2.19
2.31 2.35 2.40 2.45 2.47 2.33 2.32 2.43 2.55 2.89 2.69 2.32 2.10 2.39 2.25 1.95 1.66 1.21 1.10 1.18 1.26 1.40 1.50 1.54 1.42 1.31 1.22 1.25 1.26 1.09 1.28 1.74 2.24 2.63 2.72 2.67 2.51 2.67 2.89 2.64 2.25 2.09 1.97
2.29 2.40 2.40 2.38 2.34 2.28 2.34 2.42 2.48 2.90 3.10 2.80 2.45 2.03 1.83 1.80 1.92 1.66 1.24 1.17 1.26 1.28 1.37 1.46 1.43 1.50 1.46 1.47 1.49 1.24 1.12 1.37 1.81 2.37 2.78 3.10 2.88 2.68 2.69 2.77 2.55 2.21 1.96
2.19 2.20 2.19 2.27 2.28 2.31 2.37 2.54 2.67 2.95 2.98 2.97 2.78 2.55 2.32 2.01 1.68 1.78 1.74 1.44 1.37 1.28 1.36 1.47 1.51 1.61 1.64 1.67 1.83 1.56 1.24 1.15 1.43 1.91 2.52 3.11 3.27 3.01 2.73 2.68 2.62 2.43 2.13
2.16 2.08 2.02 2.09 2.21 2.34 2.39 2.47 2.63 2.90 3.01 3.10 3.02 2.74 2.62 2.46 2.19 2.09 1.86 1.70 1.67 1.43 1.38 1.43 1.46 1.58 1.74 1.82 1.81 1.94 1.58 1.20 1.16 1.47 1.84 2.40 3.06 3.31 3.14 3.01 2.92 2.82 2.59
1.84 1.89 1.94 2.02 2.15 2.25 2.31 2.44 2.57 2.62 2.75 3.00 3.02 2.85 2.62 2.42 2.42 2.29 2.20 1.90 1.71 1.48 1.45 1.46 1.43 1.47 1.49 1.76 1.90 2.01 1.68 1.32 1.10 1.14 1.30 1.61 2.21 2.79 3.07 3.08 3.06 3.19 3.21
1.74 1.68 1.72 1.78 2.00 2.19 2.27 2.37 2.39 2.37 2.43 2.61 2.61 2.70 2.66 2.40 2.36 2.27 2.27 2.39 2.11 1.85 1.65 1.45 1.37 1.42 1.44 1.62 1.92 2.01 1.58 1.41 1.17 1.05 1.08 1.31 1.55 1.78 2.18 2.71 3.00 3.19 3.41
1.52 1.47 1.50 1.53 1.65 1.87 2.11 2.26 2.22 2.15 2.12 2.27 2.34 2.45 2.59 2.62 2.52 2.42 2.39 2.50 2.51 2.25 1.99 1.72 1.51 1.39 1.44 1.55 1.94 1.83 1.60 1.49 1.38 1.19 1.08 1.16 1.24 1.38 1.50 1.84 2.17 2.35 2.53
1.34 1.28 1.28 1.39 1.55 1.67 1.84 2.04 2.12 2.07 2.07 2.15 2.26 2.39 2.54 2.69 2.71 2.49 2.45 2.45 2.37 2.34 2.18 1.79 1.52 1.44 1.51 1.49 1.84 1.82 1.74 1.77 1.52 1.36 1.28 1.24 1.29 1.28 1.30 1.42 1.52 1.60 1.56
1.18 1.17 1.31 1.38 1.46 1.54 1.73 1.98 2.14 2.14 2.07 2.08 2.06 2.14 2.33 2.44 2.67 2.63 2.54 2.46 2.35 2.24 2.15 1.93 1.68 1.51 1.60 1.63 1.74 1.85 1.81 1.69 1.48 1.44 1.33 1.27 1.27 1.29 1.28 1.33 1.43 1.38 1.27
0.91 1.02 1.16 1.21 1.27 1.30 1.48 1.77 1.97 2.02 1.99 1.89 1.84 1.94 2.16 2.35 2.56 2.68 2.65 2.52 2.45 2.32 2.24 2.21 2.03 1.79 1.70 1.72 1.85 1.97 1.91 1.83 1.74 1.75 1.62 1.45 1.37 1.31 1.30 1.27 1.30 1.39 1.35
0.93 1.03 1.11 1.16 1.21 1.26 1.30 1.42 1.61 1.74 1.74 1.68 1.68 1.70 1.73 1.92 2.21 2.40 2.45 2.50 2.54 2.52 2.51 2.39 2.20 2.10 1.99 1.81 1.92 1.99 1.97 2.00 1.89 1.94 1.91 1.78 1.67 1.55 1.43 1.33 1.26 1.28 1.36
0.91 0.99 1.03 1.11 1.21 1.25 1.26 1.28 1.31 1.37 1.41 1.50 1.55 1.54 1.58 1.62 1.86 2.06 2.16 2.33 2.57 2.61 2.66 2.60 2.36 2.24 2.18 1.97 2.03 2.14 2.22 2.17 2.07 1.94 1.97 1.87 1.83 1.73 1.57 1.39 1.27 1.20 1.25
0.85 0.92 0.96 0.97 1.03 1.14 1.24 1.29 1.18 1.14 1.23 1.34 1.35 1.28 1.31 1.47 1.68 1.82 1.79 2.08 2.43 2.64 2.65 2.61 2.48 2.44 2.21 2.04 1.90 1.89 2.07 2.30 2.31 2.27 2.20 1.94 1.82 1.68 1.62 1.58 1.42 1.28 1.27
0.83 0.87 0.83 0.85 0.92 0.95 1.19 1.21 1.04 1.00 1.07 1.18 1.27 1.25 1.15 1.17 1.29 1.41 1.45 1.58 1.83 2.07 2.38 2.60 2.55 2.44 2.13 1.99 1.95 1.93 1.97 2.08 2.27 2.22 2.25 2.26 2.17 2.07 1.94 1.80 1.78 1.64 1.51
0.78 0.80 0.78 0.77 0.79 0.91 1.01 0.90 0.91 0.89 0.97 1.05 1.15 1.24 1.17 1.07 1.21 1.26 1.37 1.43 1.39 1.44 1.74 2.14 2.32 2.35 2.32 2.20 2.13 2.00 1.94 1.99 2.05 2.08 2.28 2.32 2.28 2.26 2.17 2.16 2.25 2.04 1.84
0.77 0.77 0.82 0.81 0.79 0.86 0.89 0.77 0.84 0.83 0.85 0.92 1.07 1.19 1.25 1.19 1.24 1.37 1.33 1.33 1.25 1.21 1.45 1.47 1.71 2.11 2.28 2.36 2.27 2.27 2.39 2.33 2.17 2.07 2.12 2.17 2.03 2.05 2.09 2.13 2.28 2.18 2.01
0.75 0.79 0.84 0.85 0.78 0.78 0.86 0.79 0.81 0.80 0.82 0.87 0.91 1.01 1.11 1.10 1.34 1.46 1.37 1.49 1.47 1.33 1.51 1.62 1.70 1.81 1.99 2.19 2.26 2.21 2.22 2.28 2.25 2.13 1.97 1.86 1.76 1.77 1.86 1.91 1.94 2.04 2.02
0.58 0.68 0.69 0.70 0.74 0.74 0.97 0.91 0.90 0.82 0.84 0.94 0.98 0.96 1.14 1.19 1.36 1.35 1.22 1.44 1.49 1.44 1.39 1.44 1.44 1.47 1.42 1.60 1.90 1.96 2.12 2.18 2.11 2.03 1.78 1.67 1.63 1.68 1.72 1.58 1.45 1.46 1.48